VEERY-RL1

Last updated on Thu Apr 22 2021 00:02:03 GMT+0000 (Coordinated Universal Time)

1 47965U 21023A 21111.54531118 .00001731 00000-0 13275-3 0 9996 2 47965 45.0043 306.4586 0012258 69.3472 290.8716 15.06093257 4465
UTC large
Height (km)
Speed (km/s)
/
Latitude / Longitude
Inclination (degrees)
Orbital Period (minutes)
Azimuth
Elevation
Range (km)
Doppler Factor

Next 0 passes for location: London (51.5072 / 0.1276)

Sorry there are no passes over London.